Location: Heiligenberg
(48.5381°N, 7.3897°E)
Time: 02:58:30
(UTC+00:00)

SL-16 R/B - Pass Details

Date: 26 May 2022
Orbit: 839 x 850 km, 71.0° (Epoch: 26 June)

Event Time Altitude Azimuth Distance (km) Brightness Sun altitude
Exits shadow 01:58:13 18° 217° (SW) 1,974 3.5 -12.7°
Maximum altitude 02:02:32 73° 299° (WNW) 887 2.3 -12.2°
Drops below altitude 10° 02:08:14 10° 25° (NNE) 2,478 6.1 -11.7°
Sets 02:10:43 0° 28° (NNE) 3,419 7.3 -11.4°
